Jogging RFC Sart 16/01/2016 - 9 Km
Place Nom Prénom Temps Vitesse Allure Place. Cat. Cat.
1 LUXEN ANTOINE 401 0:33:57 15,9 3:46 1 H
2 WEBER CLEMENT 117 0:34:17 15,7 3:48 2 H
3 CAMPIONE MICHAEL 416 0:34:35 15,6 3:50 3 H
4 JAMSIN RUBEN 189 0:35:14 15,3 3:54 4 H
5 ZARADZKI ROBERT 171 0:35:30 15,2 3:56 5 H
6 FRIEDRICH SIMON 154 0:36:16 14,9 4:01 6 H
7 BRUYERE STEVEN 215 0:36:33 14,8 4:03 7 H
8 ORINEL OLIVIER 140 0:36:42 14,7 4:04 8 H
9 BAUDINET CHARLES 188 0:36:50 14,7 4:05 9 H
10 THUNUS KEVIN 409 0:37:24 14,4 4:09 10 H
11 LECLOUX JULIEN 426 0:37:36 14,4 4:10 11 H
12 BRONLET MATHIEU 163 0:37:54 14,2 4:12 12 H
13 DHEUR SEBASTIEN 121 0:37:56 14,2 4:12 13 H
14 LECLERCQ JORDAN 415 0:38:02 14,2 4:13 14 H
15 DELHEZ JONATHAN 162 0:38:15 14,1 4:15 15 H
16 DEGUELDRE JEAN_LOUIS 11 0:38:28 14,0 4:16 16 H
17 HAMES CEDRIC 407 0:39:01 13,8 4:20 17 H
18 VANDEPUTTE PASCAL 172 0:39:04 13,8 4:20 18 H
19 SANTOS ANTERO 414 0:39:12 13,8 4:21 19 H
20 RENSONNET DIDIER 433 0:39:28 13,7 4:23 20 H
21 JOURDAN GUY 432 0:39:36 13,6 4:24 21 H
22 DEWART RENAUD 164 0:39:38 13,6 4:24 22 H
23 MARTIN AARON 38 0:39:40 13,6 4:24 23 H
24 SCHAUS MANUEL 132 0:39:44 13,6 4:24 24 H
25 BLAISE THOMAS 185 0:39:51 13,5 4:25 25 H
26 MATHIEU BERNARD 123 0:40:06 13,5 4:27 26 H
27 BRONFORT ROMAIN 176 0:40:21 13,4 4:29 27 H
28 DEPRESSEUX JULIEN 137 0:40:21 13,4 4:29 28 H
29 VRONEN ROGER 191 0:40:26 13,4 4:29 29 H
30 PIRLET MARTIN 14 0:40:28 13,3 4:29 30 H
31 THOMAS JORDAN 430 0:40:32 13,3 4:30 31 H
32 HEINDRICHS LUCAS 39 0:40:34 13,3 4:30 32 H
33 MASSIN JEAN PHILIPPE 129 0:40:36 13,3 4:30 33 H
34 THONON RÉGIS 138 0:40:38 13,3 4:30 34 H
35 MASSON QUENTIN 406 0:40:40 13,3 4:31 35 H
36 LIEGEOIS MANON 153 0:40:43 13,3 4:31 1 D
37 NOUPRE ROMAIN 196 0:40:57 13,2 4:33 36 H
38 EVRARD GERMAIN 197 0:40:58 13,2 4:33 37 H
39 THOME GREGORY 194 0:41:02 13,2 4:33 38 H
40 DELFORGE SERGE 21 0:41:14 13,1 4:34 39 H
41 CARABIN BERNARD 180 0:41:44 12,9 4:38 40 H
42 GREGOIRE OLIVIER 148 0:41:45 12,9 4:38 41 H
43 JACQUE OLIVIER 207 0:42:03 12,8 4:40 42 H
44 SCHYNS JEREMY 181 0:42:06 12,8 4:40 43 H
45 HAOUCHINE HASSN 102 0:42:17 12,8 4:41 44 H
46 SCHNAKERS ARNAUD 157 0:42:18 12,8 4:42 45 H
47 LEJOLY JEREMY 127 0:42:23 12,7 4:42 46 H
48 LECLERRE JEREMY 27 0:42:27 12,7 4:43 47 H
49 HALLEUX J-M 12 0:42:38 12,7 4:44 48 H
50 WEIS BENJAMIN 43 0:42:42 12,6 4:44 49 H
51 DETHIER MATHIEU 126 0:42:55 12,6 4:46 50 H
52 MONVILLE VALENTIN 37 0:43:00 12,6 4:46 51 H
53 DECKERS BERNARD 160 0:43:07 12,5 4:47 52 H
54 FINK JO 13 0:43:12 12,5 4:48 53 H
55 NOLS OLIVIER 16 0:43:25 12,4 4:49 54 H
56 CRUTZEN PATRICE 158 0:43:35 12,4 4:50 55 H
57 CHEFNEUX SEBASTIEN 130 0:43:43 12,3 4:51 56 H
58 VAN DE WINKEL THOMAS 173 0:43:49 12,3 4:52 57 H
59 ORBAN SARAH 174 0:43:49 12,3 4:52 2 D
60 PIRENNE DAVID 107 0:44:09 12,2 4:54 58 H
61 COBBEN SYLVAIN 133 0:44:13 12,2 4:54 59 H
62 PIRONT JEAN-CEDRIC 411 0:44:15 12,2 4:55 60 H
63 WEISGERBER JULIEN 410 0:44:17 12,2 4:55 61 H
64 GUIDOLIN ROBIN 202 0:44:18 12,2 4:55 62 H
65 HANSENNE JEROME 412 0:44:23 12,2 4:55 63 H
66 RENARD LIONEL 115 0:44:31 12,1 4:56 64 H
67 FLAMAND MICHAEL 184 0:44:36 12,1 4:57 65 H
68 LEROY BENOIT 46 0:44:41 12,1 4:57 66 H
69 LESCART JEAN-CHRISTOPHE 1 0:44:41 12,1 4:57 67 H
70 VANWERST LUCAS 120 0:44:44 12,1 4:58 68 H
71 LESPIRE MARC 3 0:44:50 12,0 4:58 69 H
72 WIERTZ XAVIER 28 0:44:59 12,0 4:59 70 H
73 MEYER THOMAS 161 0:45:33 11,9 5:03 71 H
74 MALMENDIER MATHIEU 15 0:45:35 11,8 5:03 72 H
75 DEFECHE JUSTINE 182 0:45:45 11,8 5:05 3 D
76 ROLLON STEPHANE 183 0:45:48 11,8 5:05 73 H
77 DEMONTY CEDRIC 136 0:46:05 11,7 5:07 74 H
78 VAN LAAR ALEXANDRE 29 0:46:07 11,7 5:07 75 H
79 LOONEN MARVIN 30 0:46:08 11,7 5:07 76 H
80 ERNST CEDRIC 31 0:46:15 11,7 5:08 77 H
81 BOVY PIERRE 408 0:46:18 11,7 5:08 78 H
82 ANDRIEN TONY 109 0:46:27 11,6 5:09 79 H
83 DACO RAPHAEL 118 0:46:28 11,6 5:09 80 H
84 LEYENS GERALD 204 0:46:54 11,5 5:12 81 H
85 BOULANGER ROMAIN 40 0:47:04 11,5 5:13 82 H
86 TSAGKAS NICOLAS 418 0:47:11 11,4 5:14 83 H
87 COLLARD JULIEN 169 0:47:12 11,4 5:14 84 H
88 PAQUET SEBASTIEN 200 0:47:23 11,4 5:15 85 H
89 THOME LIONEL 193 0:47:38 11,3 5:17 86 H
90 REMACLE GAETAN 195 0:47:41 11,3 5:17 87 H
91 SENARD ELOISE 211 0:47:41 11,3 5:17 4 D
92 LONNEUX JEAN-MICHEL 190 0:47:42 11,3 5:18 88 H
93 MANSET P-ANTOINE 178 0:47:43 11,3 5:18 89 H
94 LOECKX LAURENT 177 0:47:45 11,3 5:18 90 H
95 MONVILLE VINCENT 168 0:47:48 11,3 5:18 91 H
96 BONHOMME THOMAS 201 0:47:57 11,3 5:19 92 H
97 SECLI MAX 134 0:48:16 11,2 5:21 93 H
98 EL HARMOUCHI HASSAN 119 0:48:16 11,2 5:21 94 H
99 FETTWEIS PAULINE 400 0:48:24 11,2 5:22 5 D
100 PIERRE ALEXANDRE 5 0:48:55 11,0 5:26 95 H
101 DE FLINES FRANÇOIS 413 0:49:08 11,0 5:27 96 H
102 DEVILLERS JONATHAN 25 0:49:19 10,9 5:28 97 H
103 STASSIN DAVID 4 0:49:20 10,9 5:28 98 H
104 COLLARD SOPHIE 170 0:49:21 10,9 5:29 6 D
105 LEJEUNE ANDRE 108 0:49:23 10,9 5:29 99 H
106 GRANDJEAN JEAN-LUC 147 0:49:24 10,9 5:29 100 H
107 BADENBERG BERNARD 219 0:49:26 10,9 5:29 101 H
108 WECKX JULIE 405 0:49:31 10,9 5:30 7 D
109 STASSEN BENJAMIN 124 0:49:33 10,9 5:30 102 H
110 NYSSEN THOMAS 145 0:49:36 10,9 5:30 103 H
111 LACROIX ANTOINE 42 0:49:39 10,9 5:31 104 H
112 DEROANNE ADRIEN 35 0:49:40 10,9 5:31 105 H
113 BRONFORT FREDERIC 419 0:50:00 10,8 5:33 106 H
114 GOVAERT MICHEL 436 0:50:00 10,8 5:33 107 H
115 CLAESSEN PASCAL 203 0:50:00 10,8 5:33 108 H
116 FETTWEIS THIERRY 199 0:50:06 10,8 5:34 109 H
117 GOBELS FRANCY 10 0:50:08 10,8 5:34 110 H
118 TAZIAUX ANTOINE 428 0:50:10 10,8 5:34 111 H
119 NOKIN JEAN YVES 198 0:50:11 10,8 5:34 112 H
120 BLOEMEN VALENTINE 403 0:50:13 10,8 5:34 8 D
121 KEVELAER BEATRICE 26 0:50:14 10,7 5:34 9 D
122 DEVILLERS ALAIN 24 0:50:15 10,7 5:35 113 H
123 PIERRE FABIAN 23 0:50:16 10,7 5:35 114 H
124 LOUVIAUX CINDY 22 0:50:16 10,7 5:35 10 D
125 EMONTS XAVIER 146 0:50:21 10,7 5:35 115 H
126 BOURSEAU BERTRAND 48 0:50:30 10,7 5:36 116 H
127 FAUTRE TIFFANY 424 0:50:39 10,7 5:37 11 D
128 SAIL YVAN 192 0:50:41 10,7 5:37 117 H
129 VERLAINE MARTIN 209 0:50:44 10,6 5:38 118 H
130 SENARD LUCILE 214 0:50:44 10,6 5:38 12 D
131 ABAD LAMAS PATRICIA 141 0:50:47 10,6 5:38 13 D
132 STASSART CELINE 110 0:50:50 10,6 5:38 14 D
133 DEFOURNY CAROLINE 128 0:50:55 10,6 5:39 15 D
134 HEINRICHS GREGORY 101 0:51:00 10,6 5:40 119 H
135 CARDINAL-FRAS BRUNO 41 0:51:14 10,5 5:41 120 H
136 DE LA MOTTE PHILIPPE 6 0:51:16 10,5 5:41 121 H
137 CLOSE DAMIEN 34 0:51:19 10,5 5:42 122 H
138 MANSET ADELINE 105 0:51:21 10,5 5:42 16 D
139 LEUSCH MYRTILLE 116 0:51:22 10,5 5:42 17 D
140 PLUMACKER MARIE 427 0:51:27 10,5 5:43 18 D
141 HERREN KARIN 425 0:51:27 10,5 5:43 19 D
142 SENARD MARC 210 0:51:35 10,5 5:43 123 H
143 WISLET SIMON 139 0:51:38 10,5 5:44 124 H
144 KESSEL DAMIEN 36 0:51:56 10,4 5:46 125 H
145 PAROTTE AURORE 106 0:52:01 10,4 5:46 20 D
146 COUVREUR CHARLY 206 0:52:07 10,4 5:47 126 H
147 DECHAMPS VALERIE 175 0:52:08 10,4 5:47 21 D
148 DOTHEE DOMINIQUE 167 0:52:10 10,3 5:47 127 H
149 BONTENS DANY 205 0:52:14 10,3 5:48 128 H
150 HAAS LAURENT 20 0:52:17 10,3 5:48 129 H
151 BASTIN VINCENT 216 0:53:03 10,2 5:53 130 H
152 JOWAY ERIC 18 0:53:08 10,2 5:54 131 H
153 ASSENT AMANDINE 44 0:53:10 10,2 5:54 22 D
154 HOCK MICHAEL 17 0:53:11 10,2 5:54 132 H
155 RENAERS STEPHANE 19 0:53:12 10,1 5:54 133 H
156 VANAUBEL MARILYN 435 0:53:17 10,1 5:55 23 D
157 PIRENNE ISABELLE 179 0:53:32 10,1 5:56 24 D
158 MINET ADRIEN 7 0:53:41 10,1 5:57 134 H
159 STASSEN BERENGERE 125 0:53:51 10,0 5:59 25 D
160 BECKERS JULIEN 429 0:54:23 9,9 6:02 135 H
161 LOORE FREDERIC 49 0:54:31 9,9 6:03 136 H
162 SCHAUS CARINE 439 0:54:51 9,8 6:05 26 D
163 LEBEAU LUDIVINE 187 0:54:51 9,8 6:05 27 D
164 DEVILLE PIERRE 151 0:54:51 9,8 6:05 137 H
165 GOBLET PIERRE 114 0:54:58 9,8 6:06 138 H
166 VERLAINE DOMINIQUE 208 0:55:06 9,8 6:07 139 H
167 ARNOULD NATHALIE 212 0:55:06 9,8 6:07 28 D
168 STASSART SANDRINE 150 0:55:09 9,8 6:07 29 D
169 LEMAIRE MICHEL 135 0:55:10 9,8 6:07 140 H
170 LEONARD EMILIE 186 0:55:32 9,7 6:10 30 D
171 BOULANGER GENEVIEVE 218 0:55:33 9,7 6:10 31 D
172 BOULANGER JACQUES 217 0:55:35 9,7 6:10 141 H
173 GREGOIRE DOMINIQUE 149 0:55:37 9,7 6:10 32 D
174 TOUSSAINT THOMAS 213 0:55:56 9,7 6:12 142 H
175 BORRE THIERRY 152 0:56:27 9,6 6:16 143 H
176 LEPORCK MARGAUX 422 0:57:04 9,5 6:20 33 D
177 BRONFORT LAETITIA 420 0:57:12 9,4 6:21 34 D
178 DUBLET SERGE 142 0:57:52 9,3 6:25 144 H
179 PAQUET ROMAIN 434 0:58:08 9,3 6:27 145 H
180 LOVENBERG GUY 404 0:58:10 9,3 6:27 146 H
181 MELOTTE CAROLE 156 0:59:00 9,2 6:33 35 D
182 DEWEZ ANNE-CLAIRE 155 0:59:00 9,2 6:33 36 D
183 QUICKELS BERNARD 47 0:59:58 9,0 6:39 147 H
184 LEMOINE ALINE 417 1:00:27 8,9 6:43 37 D
185 FANIELLE CINDY 122 1:00:28 8,9 6:43 38 D
186 NICKELS DANIELLE 423 1:00:32 8,9 6:43 39 D
187 VOSS FRANCE 166 1:01:44 8,7 6:51 40 D
188 NICOLAY ERIC 165 1:02:22 8,7 6:55 148 H
189 ERNST KAREN 9 1:02:33 8,6 6:57 41 D
190 CASU SABRINA 8 1:02:33 8,6 6:57 42 D
191 ZOUARI SEIF 222 1:02:47 8,6 6:58 149 H
192 RAHIER EMILIE 143 1:02:51 8,6 6:59 43 D
193 DEFAWES ELISE 159 1:02:51 8,6 6:59 44 D
194 JEROME MARIE 421 1:03:27 8,5 7:03 45 D
195 LAHAYE RAPHAEL 45 1:03:27 8,5 7:03 150 H
196 JEROMEA ALEXANDRE 131 1:03:27 8,5 7:03 151 H
197 POYSAT JEAN 402 1:03:27 8,5 7:03 152 H
198 LEMPEREUR PATRICE 431 1:03:39 8,5 7:04 153 H
199 CLOSSET BENOIT 437 1:04:20 8,4 7:08 154 H
200 CLOSSET CECILE 438 1:04:20 8,4 7:08 46 D
201 LUCASSEN LAURENCE 113 1:04:36 8,4 7:10 47 D
202 WITROUW ELODIE 111 1:04:36 8,4 7:10 48 D
203 DELLICOUR JENNIFER 112 1:05:18 8,3 7:15 49 D
204 VINCKEN NANCY 2 1:08:19 7,9 7:35 50 D
205 BECKS CHRISTELLE 33 1:08:25 7,9 7:36 51 D
206 FELLER ISABELLE 32 1:09:27 7,8 7:43 52 D
207 NYSSEN PIERRE 144 1:09:27 7,8 7:43 155 H
208 MICHEL CECILE 104 1:10:34 7,7 7:50 53 D
209 ROTELLA DANILO 103 1:10:34 7,7 7:50 156 H
210 LAHAYE MALIKA 221 1:12:11 7,5 8:01 54 D
211 CROSSET MAXIME 220 1:12:11 7,5 8:01 157 H